Vorticity
5 4 4 4 4 4 5 5 5 6 8 9 9 7 5 4 9 7 6 4 4 6 6 6 6 7 9 9 6 7 7 4 6 8 7 8 10 8 7 6 5 5 7 8 9 7 6
4 3 4 4 3 4 5 5 6 8 8 8 6 4 5 8 6 6 5 6 10 12 11 9 8 7 7 3 11 7 5 10 5 5 7 7 6 6 6 7 6 4 7 7 7 7 7
6 5 5 5 5 6 6 7 8 8 8 5 4 5 8 5 5 6 11 12 6 2 3 3 3 5 5 7 6 7 8 8 7 7 7 7 7 7 3 4 7 -2 2 2 5 8 5
8 7 6 7 7 8 8 8 8 8 6 4 4 6 5 5 4 12 5 6 8 8 9 9 8 8 8 8 7 10 12 10 8 9 10 9 7 2 -1 2 5 6 13 11 17 11 8
8 8 7 7 7 7 7 8 7 7 5 4 5 5 6 4 6 9 4 7 9 10 9 11 13 13 18 21 16 11 7 7 9 11 11 8 4 2 3 8 12 14 0 7 6 9 9
7 8 8 8 8 7 7 7 7 6 5 6 8 7 6 5 6 8 5 6 8 8 16 4 21 9 4 3 -0 -2 7 8 5 4 0 -2 4 10 11 16 4 10 -2 2 0 -3 -4
7 7 7 8 8 7 8 7 6 6 5 7 7 6 4 5 7 8 9 7 9 18 0 13 5 11 13 14 15 16 16 17 18 19 16 20 19 17 5 1 4 4 1 2 10 12 9
8 8 8 7 8 8 8 7 7 4 8 9 7 4 3 6 9 9 8 8 9 5 9 14 8 18 14 10 14 14 15 16 14 15 11 9 8 5 3 4 5 4 6 7 12 18 1
8 7 7 7 7 7 7 7 5 4 7 6 5 3 5 8 10 9 8 9 10 9 11 18 15 10 10 8 9 7 7 3 4 3 3 3 -4 -2 2 6 14 17 15 7 -0 4 2
7 7 8 8 7 7 7 7 4 3 6 6 5 4 5 10 7 9 11 11 10 9 24 12 15 9 5 8 10 6 3 2 2 -0 1 26 12 8 8 2 5 5 5 6 6 13 26
8 7 7 7 7 7 7 7 5 4 5 7 6 4 6 9 6 9 11 12 11 12 11 5 12 6 8 4 0 9 7 -1 -1 4 8 7 4 6 5 8 14 2 4 5 6 7 11
8 8 7 7 7 7 7 7 6 5 5 6 5 5 9 9 8 10 11 12 10 16 15 4 5 2 8 7 6 2 -3 7 8 20 15 2 12 9 -11 28 22 19 10 9 25 27 39
11 8 8 8 7 7 8 8 6 6 6 6 5 8 14 7 9 10 12 9 18 12 7 13 10 9 5 3 4 9 10 14 12 11 4 -9 34 25 9 9 7 12 8 17 23 19 1
10 12 8 8 8 8 8 7 7 8 6 6 5 15 9 6 8 9 11 11 13 3 2 -5 3 7 7 5 13 20 12 1 3 7 21 19 21 6 1 2 2 4 2 -17 12 7 -6
6 10 14 9 8 8 8 7 8 7 7 6 9 8 6 6 8 9 10 19 4 7 10 5 1 23 22 14 6 6 18 8 16 14 3 5 20 11 10 -7 4 10 8 6 4 16 25
4 2 5 14 10 9 8 8 7 8 7 7 8 7 6 9 9 11 10 3 -3 -3 -4 -2 4 10 6 4 17 9 16 1 3 16 1 5 14 28 19 13 14 10 12 13 12 10 7
5 5 1 5 11 11 8 9 8 8 8 9 8 9 12 11 9 9 9 4 6 8 13 17 8 1 -2 3 3 5 6 -5 10 14 14 1 21 4 7 -0 -3 2 -1 -12 7 -5 4
13 5 1 1 4 6 10 10 9 9 9 9 8 7 12 7 8 4 7 7 4 8 7 9 8 12 12 3 18 20 2 -0 -16 -6 7 11 11 -0 1 34 37 26 19 32 6 9 9
2 4 11 1 15 4 1 7 10 10 9 9 8 8 8 8 8 10 12 10 9 8 10 12 8 -2 5 6 14 22 13 7 9 9 1 -14 14 12 16 14 9 7 -16 -8 -1 9 6
23 10 13 18 7 5 21 14 2 7 11 10 12 9 9 7 9 8 9 9 11 17 13 8 9 10 10 10 11 -9 -0 5 1 3 7 21 19 -3 -28 -21 -21 3 10 16 23 6 1
-8 3 -7 -2 11 -1 17 9 -1 23 11 12 9 10 11 -7 -4 -1 5 -4 -2 5 6 9 11 10 11 11 11 11 10 12 7 10 11 25 8 17 16 16 12 9 10 8 -0 3 5
21 -6 8 9 24 10 1 3 31 13 12 13 10 8 8 8 7 9 7 7 11 12 12 11 7 10 10 9 9 2 10 9 17 8 5 15 15 8 12 13 8 11 5 -10 -3 22 24
13 6 8 -3 16 -2 8 10 27 9 4 7 11 11 10 7 11 10 8 8 6 2 6 7 9 9 15 13 11 11 13 15 5 7 10 16 -0 1 25 15 3 44 34 12 20 9 -0
10 19 9 -3 12 14 18 35 9 10 14 12 12 12 11 6 8 10 9 8 6 6 6 8 12 16 12 13 11 12 12 15 15 19 16 7 6 13 -7 17 24 4 9 -1 9 11 17
5 13 -5 16 19 18 30 12 9 11 13 8 10 12 12 9 10 1 11 15 8 12 13 12 11 10 12 15 18 29 17 27 31 24 18 20 22 -8 7 -0 -9 -11 13 11 5 8 -2
1 2 18 19 13 12 20 9 10 5 13 10 14 7 7 8 6 7 9 12 11 9 15 9 15 10 13 12 18 15 6 6 14 12 6 8 14 5 -11 2 11 -2 20 11 2 29 16
10 -4 13 12 7 28 13 6 7 4 11 12 5 -1 14 6 10 15 12 14 16 10 8 12 11 20 12 12 18 14 13 2 15 7 22 13 7 7 1 3 15 10 2 -10 36 -29 -5
5 4 13 12 18 26 9 6 6 8 0 6 15 21 17 10 6 12 10 10 11 11 10 14 15 12 20 26 8 5 14 3 9 5 -0 9 7 3 20 10 23 -2 -12 2 7 -1 12
10 14 18 11 30 6 1 3 6 9 22 17 14 11 10 12 4 12 9 10 10 13 14 10 7 11 8 7 7 13 3 -1 4 5 9 15 3 1 1 -7 -13 6 16 4 9 9 12
Height
3152 3153 3154 3154 3154 3155 3155 3155 3154 3154 3153 3153 3152 3151 3150 3149 3148 3147 3146 3145 3143 3142 3140 3139 3138 3137 3137 3137 3137 3136 3135 3135 3135 3135 3135 3136 3136 3136 3136 3136 3137 3136 3137 3137 3137 3137 3137
3152 3153 3153 3154 3154 3155 3154 3153 3152 3152 3151 3151 3150 3149 3148 3147 3146 3145 3144 3143 3142 3140 3139 3137 3137 3136 3135 3135 3134 3133 3133 3133 3133 3133 3134 3134 3134 3134 3135 3135 3135 3135 3135 3135 3134 3134 3134
3150 3151 3151 3152 3153 3153 3153 3153 3152 3151 3150 3149 3148 3147 3146 3145 3144 3143 3142 3140 3139 3138 3137 3135 3133 3132 3132 3133 3131 3130 3130 3130 3130 3131 3131 3131 3132 3133 3133 3133 3133 3133 3132 3131 3131 3130 3129
3150 3150 3150 3151 3151 3151 3151 3151 3151 3150 3149 3148 3147 3146 3145 3144 3142 3141 3140 3139 3137 3136 3134 3132 3130 3130 3129 3128 3127 3127 3127 3127 3128 3128 3129 3129 3130 3131 3131 3131 3130 3129 3128 3127 3127 3126 3126
3150 3149 3149 3149 3148 3148 3149 3149 3149 3148 3148 3147 3146 3145 3144 3142 3141 3139 3137 3136 3134 3133 3131 3129 3127 3126 3126 3125 3125 3124 3125 3125 3125 3126 3126 3127 3128 3128 3129 3128 3128 3126 3125 3124 3124 3123 3123
3148 3148 3149 3148 3148 3147 3147 3146 3147 3147 3146 3145 3145 3144 3142 3141 3139 3137 3135 3133 3131 3129 3127 3125 3124 3126 3124 3123 3122 3122 3122 3123 3124 3124 3124 3125 3125 3125 3125 3125 3125 3124 3123 3123 3122 3123 3119
3146 3146 3147 3147 3147 3147 3146 3145 3145 3145 3144 3144 3143 3142 3141 3139 3137 3134 3133 3131 3131 3129 3125 3124 3123 3121 3120 3120 3119 3119 3118 3119 3120 3121 3121 3122 3123 3122 3122 3122 3122 3122 3121 3119 3119 3119 3114
3143 3144 3144 3144 3145 3145 3144 3144 3144 3143 3142 3141 3141 3140 3139 3137 3135 3133 3131 3128 3127 3126 3123 3121 3120 3119 3118 3117 3118 3117 3118 3119 3119 3119 3119 3121 3120 3121 3121 3121 3120 3119 3117 3116 3113 3114 3111
3140 3141 3141 3142 3141 3142 3142 3142 3142 3141 3140 3139 3138 3138 3136 3135 3133 3131 3129 3127 3124 3123 3121 3119 3118 3118 3118 3118 3117 3117 3118 3118 3118 3118 3119 3119 3120 3118 3119 3119 3117 3115 3113 3112 3110 3107 3108
3136 3137 3138 3138 3139 3139 3140 3139 3139 3138 3138 3137 3136 3135 3133 3132 3132 3128 3127 3125 3122 3121 3118 3118 3117 3117 3118 3117 3118 3116 3116 3118 3118 3117 3117 3116 3114 3115 3115 3115 3112 3110 3110 3108 3106 3105 3103
3134 3134 3134 3134 3135 3135 3135 3136 3137 3136 3135 3135 3134 3132 3131 3128 3127 3126 3124 3121 3120 3119 3119 3117 3115 3115 3115 3117 3117 3115 3115 3115 3114 3113 3115 3113 3111 3110 3111 3110 3110 3107 3105 3104 3102 3101 3098
3131 3131 3131 3130 3131 3131 3132 3133 3132 3132 3132 3131 3130 3129 3128 3126 3124 3123 3121 3120 3119 3119 3114 3114 3113 3113 3114 3113 3114 3113 3112 3112 3110 3109 3109 3110 3107 3106 3106 3106 3104 3103 3102 3100 3097 3095 3091
3127 3128 3128 3129 3128 3127 3128 3129 3129 3129 3128 3128 3127 3125 3124 3123 3122 3120 3119 3119 3121 3116 3117 3115 3113 3113 3112 3111 3110 3110 3108 3108 3107 3106 3104 3104 3103 3101 3101 3102 3101 3100 3099 3097 3094 3091 3086
3123 3124 3125 3125 3125 3125 3124 3124 3124 3125 3125 3124 3124 3122 3121 3120 3119 3117 3117 3118 3117 3115 3113 3113 3113 3112 3112 3109 3106 3105 3104 3105 3104 3103 3100 3098 3098 3098 3097 3098 3099 3097 3098 3098 3093 3089 3081
3120 3120 3120 3121 3121 3121 3121 3121 3121 3121 3121 3120 3120 3119 3118 3116 3115 3114 3115 3114 3112 3111 3111 3110 3110 3108 3108 3107 3106 3103 3101 3100 3100 3099 3101 3098 3095 3094 3093 3094 3095 3092 3092 3092 3088 3083 3083
3115 3115 3116 3116 3116 3116 3116 3116 3116 3117 3117 3116 3116 3114 3114 3112 3111 3111 3111 3108 3107 3107 3107 3107 3107 3106 3105 3105 3103 3101 3098 3097 3096 3095 3094 3093 3092 3091 3087 3088 3087 3086 3086 3087 3086 3083 3072
3110 3111 3112 3111 3111 3111 3111 3111 3111 3112 3112 3112 3111 3110 3110 3109 3107 3107 3106 3105 3104 3103 3103 3103 3101 3101 3099 3098 3098 3097 3094 3091 3090 3091 3090 3090 3087 3088 3086 3084 3082 3082 3080 3079 3079 3078 3073
3102 3104 3106 3108 3107 3106 3107 3105 3106 3106 3106 3106 3106 3106 3105 3104 3105 3101 3100 3100 3099 3098 3098 3098 3097 3096 3094 3095 3092 3091 3089 3088 3087 3087 3084 3084 3082 3079 3080 3076 3073 3073 3073 3074 3074 3072 3069
3094 3097 3098 3101 3101 3101 3101 3100 3101 3100 3100 3101 3100 3101 3100 3100 3098 3096 3094 3095 3095 3094 3092 3092 3092 3093 3091 3090 3092 3086 3083 3084 3084 3083 3081 3078 3077 3076 3075 3074 3071 3070 3071 3071 3071 3068 3063
3087 3088 3091 3093 3094 3095 3094 3094 3094 3095 3094 3095 3095 3095 3095 3093 3092 3092 3091 3090 3089 3089 3087 3087 3087 3087 3085 3084 3084 3080 3078 3076 3076 3077 3077 3076 3072 3071 3069 3068 3067 3066 3066 3066 3065 3062 3057
3079 3081 3084 3086 3086 3087 3087 3087 3088 3088 3089 3090 3089 3088 3088 3088 3088 3086 3087 3086 3086 3084 3083 3082 3081 3081 3080 3078 3077 3074 3073 3070 3067 3068 3069 3071 3068 3065 3063 3063 3063 3062 3062 3060 3058 3056 3053
3071 3074 3076 3077 3078 3079 3079 3079 3080 3082 3083 3084 3083 3084 3083 3082 3082 3082 3081 3081 3081 3079 3080 3077 3076 3076 3076 3073 3071 3069 3067 3067 3064 3061 3062 3061 3063 3060 3058 3058 3057 3056 3055 3053 3051 3048 3046
3063 3066 3068 3069 3071 3072 3071 3071 3072 3075 3078 3079 3078 3077 3077 3076 3075 3077 3077 3075 3074 3074 3073 3072 3070 3069 3069 3068 3066 3064 3062 3060 3059 3057 3057 3059 3058 3058 3054 3055 3053 3050 3048 3048 3045 3044 3042
3056 3058 3061 3061 3063 3064 3063 3064 3066 3069 3073 3075 3074 3073 3073 3072 3072 3071 3070 3071 3071 3071 3068 3067 3065 3062 3063 3062 3061 3060 3057 3055 3054 3054 3053 3053 3054 3056 3052 3052 3050 3044 3043 3043 3041 3039 3037
3049 3052 3052 3055 3055 3056 3057 3059 3062 3065 3068 3070 3071 3069 3067 3069 3069 3068 3065 3061 3063 3065 3064 3062 3061 3058 3055 3055 3056 3054 3051 3050 3048 3048 3049 3050 3051 3052 3051 3048 3046 3042 3039 3039 3036 3033 3030
3042 3044 3046 3048 3048 3050 3052 3055 3057 3061 3064 3065 3065 3065 3063 3064 3065 3064 3059 3058 3055 3056 3059 3057 3056 3054 3052 3050 3052 3052 3049 3047 3047 3047 3047 3047 3048 3050 3049 3047 3042 3037 3036 3035 3033 3027 3025
3036 3037 3041 3043 3043 3044 3049 3052 3054 3056 3059 3062 3061 3060 3059 3058 3058 3059 3055 3051 3050 3049 3053 3053 3051 3051 3049 3047 3048 3049 3047 3045 3044 3043 3043 3044 3044 3044 3043 3042 3038 3035 3034 3033 3032 3030 3022
3029 3032 3034 3038 3037 3039 3044 3049 3051 3052 3054 3055 3056 3055 3055 3052 3051 3052 3051 3048 3043 3042 3044 3047 3050 3046 3046 3047 3048 3047 3045 3044 3042 3041 3040 3041 3041 3040 3040 3037 3035 3033 3031 3032 3027 3021 3016
3021 3025 3029 3030 3030 3036 3041 3043 3046 3046 3047 3049 3051 3049 3051 3050 3047 3045 3045 3043 3040 3039 3041 3041 3045 3044 3043 3044 3045 3045 3043 3041 3039 3039 3038 3039 3039 3038 3038 3035 3031 3028 3025 3023 3019 3015 3010